Home   Weather   Portsmouth   Past weeks

Flag for USA Past Weather in Portsmouth, Virginia, USA — Yesterday and Last 2 Weeks

Now
83 °F

Broken clouds.


Feels Like: 90 °F
Forecast: 80 / 94 °F
Wind: 10 mph from Southwest

Location: Norfolk Naval Air Station

Current Time: Jul 23, 2017 at 8:55:10 am

Latest Report: Jul 23, 2017 at 7:59 am


Visibility: 7 mi

Pressure: 29.82 "Hg

Humidity: 77%

Dew Point: 75 °F

Location of PortsmouthLocation

Past Weather in Portsmouth — Graph

°F

Portsmouth Temperature Yesterday

Maximum temperature yesterday: 96 °F (at 2:59 pm)
Minimum temperature yesterday: 79 °F (at 4:59 am)
Average temperature yesterday: 86 °F

High & Low Weather Summary for the Past Weeks

 TemperatureHumidityPressure
High98 °F (Jul 14, 3:59 pm)91% (Jul 9, 2:59 am)30.13 "Hg (Jul 9, 2:59 am)
Low73 °F (Jul 9, 5:59 am)38% (Jul 10, 1:59 pm)29.79 "Hg (Jul 23, 4:59 am)
Average83 °F70%30.01 "Hg
* Reported Jul 8 6:59 am — Jul 23 6:59 am, Portsmouth. Weather by CustomWeather, © 2017

Note: Actual official high and low records may vary slightly from our data, if they occured in-between our weather recording intervals... More about our weather records

Advertising

Portsmouth Weather History for the Previous 24 Hours

Scroll right to see more
 ConditionsComfort  
Time TempWeatherWind HumidityBarometerVisibility
6:59 am
Sun, Jul 23
81 °FBroken clouds.10 mph79%29.80 "Hg7 mi
5:59 am81 °FPartly cloudy.8 mph79%29.80 "Hg8 mi
4:59 am82 °FPassing clouds.9 mph79%29.79 "Hg8 mi
3:59 am82 °FPassing clouds.9 mph79%29.80 "Hg8 mi
2:59 am83 °FPassing clouds.13 mph77%29.80 "Hg9 mi
1:59 am84 °FPassing clouds.13 mph74%29.80 "Hg8 mi
12:59 am84 °FPassing clouds.15 mph74%29.82 "Hg8 mi
11:59 pm
Sat, Jul 22
85 °FPassing clouds.10 mph72%29.83 "Hg8 mi
10:59 pm86 °FPassing clouds.8 mph67%29.84 "Hg9 mi
9:59 pm85 °FPassing clouds.6 mph68%29.85 "Hg9 mi
8:59 pm84 °FPassing clouds.7 mph67%29.83 "Hg10 mi
7:59 pm84 °FPartly sunny.9 mph70%29.83 "Hg9 mi
6:59 pm86 °FThunderstorms. Broken clouds.14 mph65%29.81 "Hg9 mi
6:24 pm86 °FThunderstorms. Partly sunny.8 mph59%29.81 "Hg10 mi
5:59 pm87 °FBroken clouds.13 mph63%29.81 "Hg8 mi
4:59 pm96 °FBroken clouds.9 mph52%29.82 "Hg7 mi
3:59 pm96 °FScattered clouds.12 mph51%29.84 "Hg7 mi
2:59 pm96 °FScattered clouds.14 mph49%29.86 "Hg8 mi
1:59 pm94 °FScattered clouds.12 mph51%29.89 "Hg8 mi
12:59 pm93 °FScattered clouds.12 mph54%29.90 "Hg8 mi
11:59 am91 °FScattered clouds.7 mph57%29.92 "Hg8 mi
10:59 am88 °FScattered clouds.10 mph63%29.93 "Hg7 mi
9:59 am85 °FScattered clouds.9 mph70%29.94 "Hg6 mi
8:59 am84 °FPassing clouds.10 mph72%29.94 "Hg7 mi
Weather by CustomWeather, © 2017

See weather overviewHow to use our weather pages